Location: Unspecified
(51.0950°N, 12.9690°E)
Time: 09:36:17
(UTC+00:00)

deb GEOSAT 1 - Visible Passes

Search period start: 24 July 2024 00:00
Search period end: 03 August 2024 00:00
Orbit: 698 x 757 km, 107.8° (Epoch: 23 July)

Date Brightness Start Highest point End Pass type
(mag) Time Alt. Az. Time Alt. Az. Time Alt. Az.
25 Jul ? 20:26:00 10° SSW 20:29:32 20° WSW 20:33:03 10° WNW visible
26 Jul ? 19:37:01 10° S 19:41:43 50° WSW 19:46:23 10° NW visible
27 Jul ? 20:28:00 10° SSW 20:31:46 22° WSW 20:35:31 10° NW visible
28 Jul ? 19:39:14 10° SSE 19:43:59 56° WSW 19:48:42 10° NW visible
29 Jul ? 20:30:02 10° SSW 20:33:59 25° WSW 20:37:57 10° NW visible
30 Jul ? 19:41:27 10° SSE 19:46:15 63° WSW 19:51:00 10° NW visible
30 Jul ? 21:23:24 10° WSW 21:24:15 10° W 21:25:07 10° W visible
31 Jul ? 20:32:04 10° SSW 20:36:12 28° WSW 20:40:18 10° NW visible
01 Aug ? 19:43:40 10° SSE 19:48:28 71° WSW 19:53:15 10° NNW visible
01 Aug ? 21:24:34 10° WSW 21:26:25 12° W 21:28:15 10° WNW visible
02 Aug ? 20:34:07 10° S 20:38:23 31° WSW 20:42:38 10° NW visible
